sat.trackr.live / text

‹ back to catalog

SPHINX/FRAZIER

NORAD 63232 · 2025-052Y

PAYLOAD ACTIVE UNKNOWN

§ Identity

Operator
Country
US
Launch date
2025-03-15
Launch site
AFWTR
Launch vehicle
Mass (kg)
RCS (m²)

External: N2YO · Heavens-Above · Gunter

§ Orbital elements

Epoch: 2026-09-22T22:28:04.801152Z

Period
94.43 min
Inclination
97.3801°
Eccentricity
0.0006387
Mean motion
15.24940186 rev/d
Perigee alt
486.6 km
Apogee alt
495.4 km
Semi-major
6,869.1 km
B*
1.7193e-4
RAAN
157.5785°
Arg perigee
148.8955°
Mean anomaly
211.2663°
Rev number
8,476

§ Raw data

SPHINX/FRAZIER1 63232U 25052Y   26265.93616668  .00004213  00000+0  17193-3 0  99992 63232  97.3801 157.5785 0006387 148.8955 211.2663 15.24940186 84764

JSON: /api/v1/satellites/63232 · /tle

For live sub-satellite position, see the globe view (requires WebGL).

§ Visibility from observer

Set your observer location to see the next 7 days of passes ≥ 10°. The values pass through the URL so the page stays shareable.

No JS? Fill the form by hand. The geolocation button needs JavaScript.

§ Radio — SatNOGS DB

ModeDescriptionDownlinkUplink
GFSK Mode U - GFSK38k4 401.100 MHz
GFSK Mode U - GFSK38k4 - Transmitter 400.500 MHz

2 transmitters · refreshed weekly from db.satnogs.org